Flag for Switzerland Weather past 2 weeks in Altdorf, Uri, Switzerland

Now
73 °F

Mild.


Feels Like: 75 °F
Forecast: 56 / 64 °F
Wind: 3 mph from Northwest

Location: Altdorf

Current Time: Jul 28, 2014 at 4:36:57 PM

Latest Report: Jul 28, 2014 at 4:00 PM


Visibility: N/A

Pressure: 29.75 "Hg

Humidity: 70%

Dew point: 62 °F

Location of AltdorfLocation

Historic Weather in Altdorf — Graph

°F

Altdorf temperature yesterday

Maximum temperature yesterday: 67 °F (at 5:00 PM)
Minimum temperature yesterday: 60 °F (at 2:00 AM)
Average temperature yesterday: 62 °F

Past Weeks' High & Low Weather Summary

 TemperatureHumidityPressure
High85 °F (Jul 20, 2:00 AM)96% (Jul 14, 12:00 AM)30.20 "Hg (Jul 14, 12:00 AM)
Low56 °F (Jul 25, 6:00 AM)31% (Jul 19, 8:00 PM)29.75 "Hg (Jul 20, 3:00 AM)
Average67 °F78%29.97 "Hg
* Reported Jul 13 3:00 PM — Jul 28 3:00 PM, Altdorf, Weather by CustomWeather, © 2014

Note: Actual official high and low records may vary slightly from our data, if they occured in-between our weather recording intervals... More about our weather records

Advertising

Altdorf weather history for previous 24 hours

 ConditionsComfort  
Time TempWeatherWind HumidityBarometerVisibility
3:00 PM
Jul 28
73 °FMild.1 mph64%29.78 "HgN/A
2:00 PM72 °FMild.5 mph67%29.80 "HgN/A
1:00 PM72 °FMild.5 mph70%29.83 "HgN/A
12:00 PM69 °FMild.3 mph70%29.85 "HgN/A
11:00 AM69 °FPartly sunny.2 mph72%29.86 "Hg19 mi
10:00 AM65 °FMild.3 mph76%29.89 "HgN/A
9:00 AM63 °FMild.1 mph81%29.91 "HgN/A
8:00 AM57 °FPassing clouds.2 mph93%29.95 "Hg19 mi
7:00 AM56 °FCool.1 mph94%29.96 "HgN/A
6:00 AM56 °FCool.2 mph94%29.96 "HgN/A
5:00 AM56 °FClear.No wind94%29.96 "Hg11 mi
4:00 AM56 °FCool.3 mph95%29.98 "HgN/A
3:00 AM57 °FCool.3 mph94%29.99 "HgN/A
2:00 AM59 °FCool.2 mph94%30.01 "HgN/A
1:00 AM61 °FCool.1 mph92%30.02 "HgN/A
12:00 AM62 °FCool.1 mph93%30.02 "HgN/A
11:00 PM
Jul 27
64 °FOvercast.3 mph89%30.03 "Hg11 mi
10:00 PM63 °FMild.1 mph94%30.03 "HgN/A
9:00 PM64 °FMild.2 mph88%30.02 "HgN/A
8:00 PM65 °FMild.No wind88%30.02 "HgN/A
7:00 PM65 °FMild.1 mph84%30.01 "HgN/A
6:00 PM66 °FMild.3 mph85%30.01 "HgN/A
5:00 PM67 °FOvercast.1 mph74%30.02 "Hg11 mi
4:00 PM65 °FMild.1 mph83%30.05 "HgN/A
Weather by CustomWeather, © 2014

See weather overviewHow to use our weather pages